GFSWCAN_con_3kmhel_249.txt.gz
Helicity
462 395 384 230 230 202 190 136 153 143 131 124 106 105 100 88 98 63 62 83 74 98 134 116 114 145 129 145 152 76 101 79 89 131 105 54 65 53 85 66 71 79 66 60 81 79 96 42 28 52 108 79 60 30
462 433 299 224 212 193 145 152 148 135 116 108 102 95 102 82 65 63 72 75 68 115 108 71 108 94 93 95 107 86 78 59 44 57 39 37 43 52 70 89 81 87 96 104 133 131 93 97 147 127 45 66 68 -25
497 427 282 225 200 165 122 154 145 131 118 110 96 87 90 108 106 95 89 67 121 121 108 74 97 57 74 69 63 106 61 44 28 21 26 23 60 60 78 75 105 97 92 123 79 130 35 75 58 -8 8 38 32 41
544 421 277 235 172 125 132 159 143 128 126 110 100 102 122 133 129 89 86 39 71 91 123 58 20 47 25 40 56 57 33 21 22 20 33 42 60 54 78 93 111 98 95 93 107 70 17 93 1 18 33 30 41 51
592 403 271 215 176 125 149 159 137 132 124 96 104 105 121 162 184 161 109 78 45 67 105 83 33 25 19 43 36 14 31 34 38 41 43 47 47 69 89 114 105 88 92 100 123 78 131 109 57 46 48 44 40 53
627 351 251 212 176 136 149 160 135 119 97 84 99 97 100 85 58 68 110 75 46 41 90 102 27 33 17 12 34 32 31 27 35 50 37 43 47 83 104 118 96 91 118 127 121 68 72 88 57 54 57 52 56 48
579 297 277 245 158 147 163 153 126 106 90 87 101 106 90 94 85 100 106 39 -4 31 84 122 82 35 28 30 43 48 32 36 43 42 50 67 55 84 103 102 83 73 68 64 106 41 67 62 68 65 63 57 53 79
491 296 276 215 154 159 162 145 112 100 104 127 132 149 135 124 100 123 103 19 9 74 78 133 77 82 35 58 70 63 77 52 44 55 57 73 60 79 83 61 60 61 42 60 13 38 65 67 61 57 62 45 43 64
403 333 286 171 161 153 153 126 107 123 132 123 130 103 72 87 98 69 3 14 51 78 134 123 147 114 41 65 63 65 74 89 56 64 63 58 64 64 52 31 29 52 52 35 21 32 27 40 41 44 44 48 67 81
355 309 211 167 160 141 119 99 111 121 122 116 72 83 106 73 9 5 27 62 101 73 88 121 66 80 66 53 67 76 72 71 78 43 37 58 53 45 31 41 43 50 50 34 3 5 12 22 34 48 60 73 84 93
336 248 194 180 150 114 86 99 114 112 99 63 81 90 63 10 57 68 115 132 121 157 112 90 89 80 45 75 58 59 68 52 66 32 45 34 41 29 30 22 32 17 30 37 43 40 42 64 63 52 53 56 69 81
295 197 179 131 106 93 75 83 99 63 54 59 76 89 67 70 87 148 128 112 157 151 110 114 71 60 44 64 72 37 61 39 44 16 36 27 30 10 -3 -22 -20 -14 -15 -7 35 20 26 41 38 43 52 56 64 87
226 188 140 106 89 74 69 103 56 103 79 59 76 92 88 49 160 183 153 133 153 124 94 88 76 68 57 62 63 59 68 43 22 33 32 27 20 -7 -17 -33 -30 -15 -13 -17 -23 -0 5 7 27 35 38 51 65 79
161 150 113 98 74 90 87 77 83 51 59 63 79 94 92 107 140 136 132 125 100 117 90 82 72 92 61 68 58 76 39 46 45 42 26 19 -12 -32 -22 -30 -34 -39 -30 -26 -20 -16 -4 -5 13 32 46 62 59 68
194 115 119 82 65 98 91 71 52 36 46 50 66 84 99 97 107 96 98 107 86 83 84 87 85 86 71 76 48 55 51 52 42 26 23 15 -17 -20 -28 -38 -38 -41 -38 -26 -21 -17 -10 -1 -4 24 44 51 64 73
185 235 97 93 117 88 74 64 42 37 32 51 70 96 80 103 83 85 93 92 64 76 75 89 99 114 65 85 83 59 81 57 38 13 23 21 -1 -9 -27 -39 -41 -49 -45 -36 -24 -24 -19 -13 -5 8 41 59 66 61
271 206 64 87 91 93 49 41 36 36 46 64 64 87 85 102 86 81 87 71 57 87 91 93 110 81 66 80 65 45 53 39 5 16 27 21 -2 -14 -25 -38 -41 -43 -45 -41 -33 -24 -22 -25 -18 -9 9 13 46 66
169 71 78 59 63 49 68 31 24 44 69 53 63 52 79 80 103 83 70 62 79 79 76 64 71 83 82 83 46 39 40 28 28 25 20 16 6 -8 -14 -32 -39 -37 -46 -48 -42 -28 -24 -19 -13 -0 6 -5 2 1
101 76 34 15 19 44 26 17 31 59 38 40 59 62 75 84 70 74 84 66 60 57 67 50 74 61 49 48 50 38 34 29 24 21 20 17 7 -8 -17 -20 -26 -27 -33 -40 -44 -37 -28 -21 -15 -7 6 -3 -0 11
129 67 28 36 15 23 36 24 17 47 36 28 51 58 72 75 70 85 90 71 46 47 38 43 35 35 51 45 63 58 43 32 32 21 13 24 11 -0 -11 -4 -10 -16 -22 -24 -28 -18 -22 -18 -11 -9 -3 2 -0 7
121 81 58 22 39 40 24 5 27 28 35 43 37 47 55 73 87 87 69 38 45 30 15 19 26 29 43 51 63 69 52 56 41 38 30 22 16 18 10 3 4 -3 -5 -15 -22 -25 -14 -14 -6 -6 -5 2 8 14
66 35 46 40 44 16 16 -3 20 14 18 25 34 41 62 60 64 62 53 48 25 4 17 22 17 35 37 37 48 72 64 61 55 45 17 23 27 20 17 17 16 6 1 -5 -8 -18 -21 -15 -10 3 -7 -1 -1 8
74 40 53 36 28 26 4 -11 11 -12 9 1 25 40 31 38 50 53 47 38 8 5 25 31 27 36 48 49 61 62 72 74 67 65 57 48 34 26 23 21 23 20 10 6 -0 -10 -17 -17 -13 -3 -2 3 3 9
80 52 37 24 24 17 -4 -4 -11 -1 7 16 36 22 24 44 53 75 62 37 23 30 55 57 68 65 71 78 82 89 99 111 89 70 68 63 56 43 29 25 28 27 24 17 5 -6 -12 -16 -5 -6 -1 3 4 2
59 60 26 32 14 35 24 3 -21 5 18 14 31 14 43 79 99 99 99 53 46 43 54 81 86 90 97 86 84 90 111 132 114 94 67 86 75 61 51 40 27 24 39 27 15 6 -2 -6 -8 -8 -4 -1 5 4
62 24 17 15 30 35 11 22 21 26 33 28 21 47 81 115 119 85 101 83 67 68 76 100 99 92 76 96 98 103 99 122 130 108 74 87 85 79 68 58 56 38 42 33 19 12 6 -1 -3 -5 -6 2 10 11
30 10 14 18 32 41 44 40 46 43 42 48 64 98 111 102 89 107 107 93 103 87 89 98 106 98 79 81 93 105 109 116 112 101 92 81 76 73 67 64 54 41 42 30 22 17 12 7 1 -4 -7 -0 -2 2
20 23 45 34 47 37 60 47 51 45 55 66 122 110 127 136 133 127 123 113 115 124 146 156 150 118 89 83 86 85 87 98 90 80 68 64 67 62 53 51 46 21 42 35 25 24 17 12 9 -2 -7 -6 -1 3
48 52 69 88 74 45 37 50 46 57 83 118 135 119 121 124 120 131 141 151 150 160 143 130 99 81 64 60 61 67 79 90 102 97 90 81 85 73 56 48 43 43 40 35 35 35 26 22 7 -2 4 -6 -2 1
61 67 81 69 62 41 41 52 64 75 86 115 113 106 112 112 107 125 149 132 115 105 84 75 64 64 62 67 57 56 56 63 77 92 87 83 76 58 55 47 40 34 35 35 35 33 39 33 24 19 11 6 2 -0
98 86 83 70 62 54 61 61 61 81 109 126 133 151 133 101 70 66 86 88 105 105 94 80 68 51 62 51 49 50 48 52 63 58 63 62 50 49 51 45 34 30 34 38 35 34 32 30 26 17 11 6 1 5
109 82 89 92 76 71 85 88 96 116 117 133 126 123 113 128 118 89 69 101 103 87 61 77 77 49 38 33 33 31 33 52 51 60 59 57 54 58 61 51 33 30 39 44 38 31 31 30 27 20 13 4 -0 -2
98 98 103 107 104 88 79 97 109 106 120 129 103 99 109 131 122 106 70 60 69 67 61 55 48 51 55 60 64 51 51 54 46 40 30 23 23 33 48 43 45 44 34 34 30 28 26 28 26 20 16 9 4 -0

GFSWCAN_con_3kmhel_255.txt.gz
Helicity
310 375 396 377 323 206 161 104 94 87 120 125 110 104 115 129 125 83 70 71 95 137 187 126 112 133 132 137 147 114 157 135 159 243 250 230 216 138 126 91 98 96 105 76 80 89 61 111 64 88 124 98 77 83
308 423 441 409 315 222 156 128 101 109 112 121 113 109 108 101 98 69 86 114 150 145 160 147 162 124 112 86 117 125 136 127 127 197 187 164 161 119 108 120 91 96 101 109 134 146 148 107 147 151 94 130 113 63
280 406 470 459 350 222 165 142 120 98 121 111 103 140 124 106 99 107 92 94 203 164 158 108 143 82 66 61 72 136 102 103 108 86 119 107 153 96 120 78 105 98 109 112 101 102 77 60 167 66 51 47 44 65
257 434 495 493 378 248 168 146 125 102 117 112 122 146 155 165 157 120 100 57 104 95 147 106 60 65 26 43 60 65 86 84 86 86 115 118 128 54 84 88 107 98 104 106 117 79 23 102 28 18 29 35 60 66
272 439 558 555 359 254 201 163 127 119 128 130 149 170 177 191 208 186 127 92 58 86 138 136 68 47 39 41 66 62 76 77 96 121 124 120 69 75 73 91 88 95 81 94 98 102 98 88 58 29 27 43 56 63
308 431 565 534 373 257 215 183 133 141 142 153 160 166 159 130 102 78 110 93 80 69 117 135 66 54 54 46 71 71 73 88 98 103 107 73 54 73 90 83 71 67 75 112 112 67 64 86 64 55 32 40 47 48
354 493 598 535 379 297 226 175 150 147 138 128 134 126 111 109 97 90 90 59 33 41 99 148 121 66 68 44 60 77 86 100 102 94 92 81 69 74 97 112 72 48 33 63 95 41 51 62 46 15 27 48 54 75
405 519 653 579 393 324 241 185 165 154 132 127 140 157 188 187 125 155 168 40 34 89 88 133 109 123 74 105 106 69 97 100 108 96 69 72 54 64 72 46 50 24 -4 53 55 34 65 48 24 31 36 41 38 55
459 656 636 540 381 332 243 183 149 139 156 153 149 124 112 113 97 80 44 74 74 80 125 151 127 122 83 107 90 77 81 135 73 87 71 46 59 64 43 42 40 6 -9 -41 -12 -23 45 -18 7 12 10 27 30 41
529 607 628 447 394 317 199 117 161 162 127 145 96 95 106 88 45 33 65 54 89 79 105 146 98 125 119 113 112 113 94 110 127 79 42 64 53 28 34 42 33 11 3 17 -16 -19 -16 -14 -11 4 14 30 46 61
640 710 611 443 351 246 174 159 150 154 134 100 90 79 87 29 64 75 94 87 84 137 123 123 130 125 87 141 125 103 120 92 132 65 77 61 43 27 43 38 28 26 20 29 58 53 23 13 22 20 17 28 38 47
651 647 535 423 269 176 163 155 134 137 67 54 85 128 78 68 69 109 62 64 119 130 128 163 116 103 93 91 133 96 131 88 121 49 84 63 30 39 42 37 -2 2 -1 -0 38 14 -27 -8 3 16 33 41 44 58
669 621 440 282 172 135 156 139 93 58 109 122 102 83 56 47 106 94 84 80 122 118 124 126 122 116 100 104 137 102 143 111 61 98 75 37 22 37 41 23 -12 -1 -1 -3 -7 -9 -24 -24 -11 -10 24 42 47 50
630 495 333 194 204 184 182 95 41 69 74 71 70 85 85 76 83 72 75 92 100 124 117 119 123 131 105 130 105 155 99 90 106 107 72 34 27 33 36 28 -4 -28 -26 -41 -43 -35 -30 -27 -22 -12 -7 10 28 24
488 394 243 214 216 183 114 60 59 62 51 52 63 62 77 54 62 50 71 93 83 93 101 114 110 105 104 129 91 117 116 119 92 86 59 33 29 36 38 31 -12 -31 -31 -45 -47 -47 -37 -31 -26 -15 -12 -22 -19 1
432 254 277 251 189 129 63 80 93 59 51 49 58 82 32 57 31 35 54 63 49 82 92 92 102 124 104 119 123 106 155 109 75 58 49 36 30 35 37 32 -10 -25 -33 -47 -56 -56 -44 -32 -25 -21 -8 -3 -8 -18
553 518 224 242 186 77 102 75 53 63 40 50 55 50 40 65 25 17 39 30 45 91 70 90 117 91 88 113 85 85 88 65 52 45 47 44 39 37 35 29 1 -13 -26 -44 -48 -56 -57 -44 -28 -19 -12 -2 -3 -7
481 308 306 189 75 139 116 57 42 34 45 74 48 34 32 23 37 25 18 46 72 85 97 68 100 111 102 83 51 50 49 46 56 50 45 45 44 40 49 33 12 -5 -17 -28 -43 -48 -53 -44 -27 -20 -18 -6 4 2
435 314 127 27 76 85 38 37 41 37 68 57 48 24 16 27 26 38 53 54 56 61 118 81 114 95 41 28 35 34 43 58 54 48 51 47 53 58 48 44 26 15 3 -0 -10 -27 -34 -44 -37 -19 -8 -1 6 2
310 232 56 53 78 59 57 41 60 76 49 7 7 13 14 6 17 38 49 50 58 64 83 100 77 32 37 24 49 53 56 67 77 50 45 47 57 68 57 54 52 37 23 18 10 1 -10 -18 -19 -19 -15 -0 3 6
345 185 74 84 89 17 24 76 74 62 36 19 16 5 -8 11 13 16 18 22 48 59 69 79 49 20 22 23 40 57 61 90 83 81 69 63 60 66 64 67 59 55 49 31 16 9 9 -11 -24 -27 -19 -11 -4 -1
216 73 124 77 22 48 46 73 55 36 22 8 20 -9 -2 -6 -3 8 28 46 39 51 81 95 65 59 51 37 45 67 60 77 68 69 54 55 73 72 64 66 68 67 54 43 35 19 9 -0 -12 5 -24 -16 -7 -6
126 136 70 71 36 44 65 96 71 23 27 5 10 3 -21 -12 -2 19 17 39 27 35 66 76 79 77 78 65 66 63 79 87 82 84 80 88 93 85 77 71 71 66 57 58 57 38 18 6 3 -3 -15 -13 -10 -4
165 86 66 39 42 35 78 43 26 35 35 19 2 -4 -3 11 26 49 31 37 51 62 93 100 142 152 129 111 93 79 77 88 76 77 89 99 94 83 91 81 74 76 72 70 64 51 29 16 11 5 -5 -14 -16 -5
86 87 26 33 49 67 68 47 55 53 31 -0 23 24 19 34 59 52 43 45 69 80 97 125 142 156 153 124 115 101 99 104 85 80 75 95 93 92 87 87 74 74 85 80 65 53 44 27 15 6 -3 -12 -20 -13
130 72 18 23 57 70 58 71 34 32 54 50 39 39 47 80 77 43 62 81 90 108 113 144 165 163 138 158 130 133 128 101 81 95 73 81 87 99 96 91 85 83 84 81 67 53 44 38 23 11 1 -9 -10 -9
16 14 57 74 63 73 94 79 80 78 69 62 56 78 96 92 61 66 84 80 119 112 119 131 149 155 152 141 132 129 106 73 69 76 79 81 83 88 92 90 81 84 79 71 54 43 40 36 29 19 11 -4 -13 -18
31 29 49 55 85 81 95 87 67 60 65 56 99 92 104 95 100 105 99 105 117 125 144 136 121 117 140 137 114 85 72 64 62 66 78 79 69 71 72 74 72 44 62 66 51 34 35 40 34 24 17 4 -5 -13
78 104 108 121 112 94 63 58 51 50 64 72 100 94 81 82 92 105 100 109 126 145 144 125 106 117 124 100 85 72 68 76 80 73 64 54 66 69 78 75 75 65 58 51 27 25 23 34 26 30 27 11 -0 -9
95 100 95 81 82 70 53 47 58 50 53 75 74 78 86 90 88 95 124 137 138 121 109 112 102 108 114 105 78 57 46 59 75 82 69 52 47 51 53 59 60 54 53 51 39 30 29 39 37 33 30 22 8 -3
115 104 104 102 91 71 68 58 60 67 67 74 86 112 108 94 70 80 90 99 124 134 134 116 95 91 111 88 73 59 39 50 68 67 68 69 66 68 71 70 66 58 53 50 45 40 34 34 34 28 22 19 20 9
144 117 124 116 115 98 91 86 78 77 79 108 114 140 122 121 105 98 81 124 132 115 89 111 114 91 64 52 46 41 54 70 78 83 77 77 82 86 86 73 66 63 54 47 45 39 29 22 30 24 20 20 18 11
170 168 161 150 141 112 94 96 94 87 100 119 115 116 128 126 113 104 74 77 103 115 100 86 72 75 72 62 52 50 64 75 75 67 58 50 42 47 59 46 59 50 43 42 37 33 25 25 31 21 16 18 18 13

GFSWCAN_con_3kmhel_258.txt.gz
Helicity
100 143 229 339 399 308 276 216 153 132 144 146 118 131 141 129 103 88 100 83 94 149 214 154 146 124 120 125 156 125 168 169 192 251 285 271 299 235 227 148 139 134 135 99 105 82 46 123 60 92 141 58 38 60
185 140 232 371 431 355 308 209 211 153 157 156 129 130 123 119 107 84 112 141 178 166 182 200 170 127 103 84 121 132 154 161 172 250 215 258 262 214 196 232 98 126 104 110 122 140 158 116 109 154 81 66 81 69
98 139 214 345 431 406 313 287 193 213 175 150 147 127 141 101 76 120 116 114 193 199 174 145 158 85 66 62 67 149 114 124 159 128 171 178 236 168 218 139 123 95 111 112 101 99 96 65 143 85 44 69 71 74
103 146 235 273 445 525 363 272 229 196 205 155 162 172 160 162 186 132 102 80 123 116 152 125 86 90 37 58 76 76 107 108 116 120 162 169 194 94 146 112 112 97 115 99 116 81 55 101 75 36 41 56 56 64
104 142 291 324 425 489 460 322 281 231 186 137 151 164 157 198 215 204 153 127 70 96 143 152 106 74 52 62 86 81 97 96 123 149 156 157 110 119 99 92 80 84 88 88 93 103 105 85 74 36 57 21 40 56
109 131 332 438 527 531 495 345 247 235 154 142 152 163 208 166 87 94 115 103 90 83 138 160 101 89 80 84 105 101 80 88 113 129 120 100 87 103 138 91 64 66 79 110 114 77 78 75 54 66 15 18 29 35
116 160 356 463 525 563 520 356 326 240 159 183 170 165 131 100 94 99 91 82 65 43 118 160 145 84 102 82 99 93 83 115 120 117 114 112 99 93 103 93 67 50 59 72 80 64 57 72 44 -19 -13 6 19 47
96 235 406 588 576 557 477 367 287 209 202 212 180 166 187 166 135 166 190 82 42 95 109 148 112 129 105 138 139 89 133 126 122 122 93 98 77 79 86 40 38 53 52 54 59 48 67 55 3 -30 -11 0 -3 30
120 346 472 647 606 505 436 353 277 204 198 205 190 140 135 123 103 91 83 90 80 86 130 139 112 90 107 135 122 132 132 167 84 109 94 69 100 94 49 37 47 56 70 1 -39 -13 23 5 -25 -24 -27 -30 -13 30
188 424 586 708 630 441 444 379 279 218 197 185 180 145 153 97 80 83 101 86 84 84 109 134 99 133 133 138 156 175 141 146 167 100 49 91 72 33 36 53 61 49 31 6 -25 -27 -19 -15 -23 -15 -16 8 42 58
320 420 673 709 585 524 433 321 248 275 209 212 171 152 90 56 85 90 97 90 75 113 110 118 129 136 108 167 177 146 157 131 189 90 118 98 74 34 50 46 56 55 33 10 56 58 -33 -18 -4 5 2 2 20 33
444 705 855 786 590 483 325 285 217 204 143 107 114 107 64 62 75 98 74 60 88 91 117 142 114 110 116 122 157 125 170 119 156 80 121 95 53 37 43 45 48 44 5 -15 6 -44 -43 -32 -28 -19 -5 5 11 38
543 861 841 788 461 267 292 193 147 98 124 162 119 95 57 49 105 85 63 64 89 92 87 98 112 123 120 123 146 130 175 139 85 122 92 60 36 39 43 48 38 34 1 -20 -39 -36 -36 -32 -22 -17 -10 -8 8 25
673 968 817 504 281 243 233 180 151 179 172 171 150 155 91 62 61 56 70 73 69 83 90 106 126 135 111 126 124 163 132 107 147 154 99 66 50 33 33 48 60 24 -9 -31 -51 -54 -50 -35 -29 -22 -22 -19 -18 -11
876 777 398 245 309 300 205 135 152 79 123 155 113 126 86 50 72 64 61 60 52 68 88 114 123 109 96 145 87 125 128 128 132 115 80 56 41 34 30 42 41 21 -6 -30 -39 -58 -61 -52 -37 -24 -21 -17 -22 -19
657 361 322 333 251 249 226 243 146 47 64 94 98 97 64 84 48 32 32 43 29 65 84 92 96 111 113 124 113 105 165 127 97 72 61 59 45 41 40 44 38 28 0 -23 -39 -45 -56 -60 -48 -34 -21 -18 -4 -15
588 594 399 315 265 278 300 236 109 142 110 134 86 85 51 64 35 4 10 26 33 66 46 69 70 53 112 104 84 91 90 80 57 46 53 55 55 47 45 47 39 31 7 -17 -19 -36 -49 -59 -61 -48 -33 -21 -16 -15
636 545 395 304 317 380 330 141 98 111 167 74 61 69 53 25 28 16 22 31 51 53 77 48 120 94 70 81 66 48 34 36 52 55 50 48 55 52 64 57 47 46 31 -2 -14 -22 -27 -40 -49 -55 -46 -32 -22 -9
676 501 246 219 323 326 272 133 85 169 88 41 100 80 41 35 35 39 46 40 39 52 108 79 91 63 68 67 65 46 40 53 48 47 51 49 60 65 65 66 59 51 42 39 19 -4 -15 -26 -31 -38 -38 -30 -17 -10
437 313 281 203 122 263 296 202 27 64 82 59 72 46 33 27 35 41 38 32 54 57 60 67 41 69 101 74 64 62 58 68 79 57 44 45 62 76 72 76 73 62 58 41 35 11 7 -2 -5 -14 -28 -30 -20 -14
448 301 311 262 218 175 164 86 85 40 74 73 69 37 21 35 31 12 10 19 40 44 31 49 50 67 61 66 63 71 72 90 81 78 69 66 65 75 76 81 80 79 74 62 52 25 25 10 0 -12 -13 -25 -25 -14
418 324 355 218 226 131 87 81 50 87 76 70 64 25 41 28 7 3 25 49 26 32 55 65 71 110 111 95 82 80 69 83 69 64 53 59 78 88 85 92 97 89 79 73 68 57 43 22 11 3 -2 -18 -15 -18
374 354 339 237 232 213 150 128 83 92 78 63 53 59 36 13 3 29 28 36 23 23 39 54 78 103 120 124 125 107 108 112 96 80 65 77 84 86 88 88 94 94 82 80 77 71 57 31 25 17 5 -5 -15 -20
310 359 314 283 219 160 98 87 80 94 84 77 60 57 29 28 46 63 49 44 40 39 55 71 124 161 152 155 151 148 142 147 111 84 77 83 93 79 80 76 85 91 91 82 82 75 63 45 29 30 14 2 -9 -16
330 261 224 184 109 88 70 75 95 101 86 73 79 53 46 64 84 91 76 55 57 52 62 98 118 119 143 146 141 136 146 175 174 131 86 90 99 95 77 67 73 78 94 96 89 80 65 48 35 29 22 9 -4 -9
310 183 137 98 70 61 30 63 65 68 106 84 64 68 76 100 116 89 92 84 75 92 104 132 157 163 137 158 158 164 151 163 167 131 75 83 88 96 82 70 63 69 84 94 95 80 56 41 31 27 23 17 16 1
142 123 72 80 66 74 100 107 103 106 85 74 74 99 110 119 90 86 89 77 92 98 111 123 146 159 156 137 117 138 137 122 101 87 81 79 81 89 89 75 58 64 79 83 80 72 49 34 26 25 27 27 10 -2
75 65 56 68 93 101 107 101 78 64 72 59 109 99 106 97 103 108 102 96 107 122 146 158 145 135 134 134 135 133 106 86 79 79 84 85 81 73 66 58 54 34 66 77 72 61 49 36 29 27 27 30 22 4
45 88 103 128 134 120 81 72 59 63 70 59 92 76 66 72 81 103 103 103 115 133 151 139 127 133 148 133 117 94 80 76 87 86 83 73 75 69 76 62 58 62 67 65 42 44 43 40 22 23 27 24 22 7
65 114 106 98 83 66 63 71 73 58 52 54 42 55 64 71 88 99 120 132 141 123 114 116 124 136 142 141 112 79 49 45 56 73 75 66 72 72 63 61 63 62 64 62 52 45 31 38 32 30 29 25 22 16
125 110 104 98 84 85 94 88 77 56 49 54 56 76 81 83 74 88 92 93 105 116 132 130 131 121 145 135 115 95 56 37 43 43 61 77 80 77 74 77 82 76 67 57 49 45 43 39 36 29 30 33 26 27
139 103 109 104 127 108 109 95 73 73 72 78 73 92 94 100 88 79 77 109 115 110 101 133 154 125 84 85 75 61 67 65 51 55 63 78 86 90 93 87 85 76 61 55 48 45 41 30 26 22 28 30 28 20
145 137 149 148 137 108 100 107 104 92 95 95 92 89 85 95 85 89 70 51 83 112 120 106 103 108 101 92 80 65 63 61 52 51 55 62 63 68 83 64 68 61 47 41 38 40 35 31 20 19 26 23 19 18

GFSWCAN_con_3kmhel_261.txt.gz
Helicity
92 166 118 130 219 275 299 284 249 203 140 168 177 166 130 160 181 182 153 103 111 152 210 143 151 154 134 138 160 129 145 134 192 241 253 245 293 273 322 243 230 212 215 160 146 118 49 141 90 113 133 97 59 61
74 102 123 162 186 301 326 321 278 208 224 200 189 160 203 203 206 160 165 154 218 199 201 204 212 159 124 102 121 101 123 149 188 254 226 280 304 310 316 329 155 194 132 145 140 134 146 122 120 141 98 79 71 55
87 110 110 108 175 328 378 354 299 282 246 233 189 198 160 151 144 142 161 131 225 232 222 178 182 140 96 73 65 119 102 138 172 159 207 221 279 239 307 199 172 108 116 125 124 115 106 79 127 115 39 67 74 71
113 102 119 126 210 307 358 378 324 379 308 284 229 183 172 182 196 159 130 104 151 157 176 135 119 131 61 61 85 81 126 137 149 138 193 216 257 154 203 160 150 119 130 111 95 82 76 100 89 25 34 67 47 51
124 106 103 121 266 385 396 422 345 350 359 316 271 213 234 190 221 214 160 136 119 106 154 170 137 112 72 73 121 113 126 126 142 170 188 186 163 164 130 118 115 98 98 106 92 116 118 98 68 35 66 -7 30 57
114 117 88 139 302 441 485 477 390 377 384 377 266 208 206 194 153 113 139 107 102 91 140 170 112 112 86 120 127 134 112 116 136 154 146 140 123 133 173 125 64 72 75 112 104 117 55 61 60 73 31 -2 27 43
97 102 75 182 360 541 534 477 469 386 483 355 233 238 212 155 108 132 103 86 98 79 133 163 129 99 92 95 113 116 110 125 137 139 143 147 125 114 135 127 68 57 60 75 94 90 45 51 22 9 -11 -35 13 45
108 118 36 260 380 606 602 579 454 456 421 279 245 299 247 180 123 163 176 97 83 116 103 128 110 117 108 141 148 110 142 143 152 151 126 129 106 98 103 50 43 51 51 60 96 57 63 49 41 2 -2 -27 -34 -30
81 78 65 383 575 605 633 589 485 507 410 291 313 257 233 194 163 94 94 119 100 89 116 113 111 83 112 133 136 146 148 195 123 159 133 96 120 108 57 46 42 54 75 67 48 -10 6 14 -8 -5 -14 -27 -33 -14
61 63 247 483 639 633 704 618 546 413 357 313 351 299 225 129 82 79 79 89 103 76 102 132 96 101 112 122 146 173 168 168 219 130 77 130 100 47 33 50 57 55 64 78 71 19 -27 -24 -12 -6 -14 -21 -23 -1
56 78 411 557 734 747 669 639 585 429 405 435 319 259 159 73 91 73 95 87 61 97 101 104 100 112 98 130 165 161 164 172 248 138 166 145 110 51 43 47 48 58 68 69 87 58 18 -15 -11 -8 -4 -9 -15 -11
44 258 554 675 727 779 741 653 521 542 438 266 206 180 97 104 104 100 80 49 80 76 87 107 93 98 98 119 153 121 195 163 179 122 184 143 81 40 44 42 46 57 59 49 57 -5 -39 -42 -39 -32 -21 -8 -6 -8
197 489 693 834 738 778 814 627 496 357 306 274 280 207 121 107 124 90 96 68 61 60 70 72 80 91 108 107 139 133 195 182 127 183 155 110 74 56 47 45 36 45 53 43 19 -6 -34 -51 -38 -29 -28 -24 -16 -13
481 640 794 667 773 787 684 351 290 226 270 259 198 193 112 77 89 90 69 66 57 61 72 87 87 92 72 105 108 157 170 151 208 209 148 101 72 48 44 46 57 37 38 34 10 -13 -39 -51 -52 -38 -34 -31 -18 -12
797 869 833 731 856 552 248 274 211 295 290 218 141 128 122 118 94 74 90 77 50 40 63 76 71 60 58 99 96 137 143 150 180 158 114 74 56 54 44 43 42 33 31 29 26 -4 -36 -45 -55 -49 -35 -29 -27 -17
836 852 786 702 593 405 316 283 335 274 225 171 164 147 131 166 87 59 60 60 5 26 35 40 39 52 34 86 112 99 198 136 131 93 67 66 54 52 51 50 44 48 48 36 27 18 -17 -36 -44 -52 -41 -34 -23 -13
843 748 494 572 456 335 342 359 273 258 199 222 214 128 84 80 56 36 18 11 -3 32 3 24 19 -14 86 76 86 136 121 100 66 49 58 64 64 57 54 54 50 52 47 42 45 24 2 -22 -29 -34 -44 -36 -29 -27
598 570 627 514 411 453 399 354 286 204 220 230 212 102 51 84 88 36 8 11 18 12 33 24 80 51 42 72 84 92 58 46 51 50 50 51 57 55 70 62 59 64 58 50 49 37 30 0 -14 -23 -33 -36 -31 -22
738 657 488 303 429 465 391 240 165 196 235 195 140 96 109 105 71 37 40 21 17 34 93 63 64 55 65 92 104 91 83 78 68 59 54 50 57 59 59 69 65 68 63 66 66 52 37 17 6 -4 -13 -18 -21 -15
899 570 326 336 311 334 285 229 160 193 193 116 72 86 96 85 59 41 37 26 35 58 60 54 42 68 96 95 108 110 97 105 113 86 56 44 52 64 58 68 74 66 67 65 60 43 55 38 26 18 2 -5 -9 -17
596 430 446 314 317 271 194 230 210 182 123 92 86 112 83 74 34 6 30 21 44 49 36 54 57 63 65 89 100 108 120 141 118 106 87 77 66 69 60 67 73 75 81 78 67 56 48 52 48 25 16 4 -8 -9
458 350 363 353 287 245 156 207 166 109 129 96 116 79 54 23 22 26 34 48 39 44 65 74 69 93 116 112 95 91 100 113 95 83 63 58 72 74 71 73 84 77 73 77 81 74 68 58 45 43 40 14 6 -9
442 417 377 302 228 207 190 205 215 169 80 63 89 69 38 44 37 50 41 44 40 35 49 64 69 92 103 110 108 105 131 146 135 121 100 98 81 64 67 71 80 81 66 68 82 77 72 56 49 47 42 32 18 4
413 368 308 238 193 162 205 195 151 107 53 81 56 48 54 59 63 68 62 72 54 63 72 74 118 150 135 133 138 149 160 174 156 133 133 136 109 72 72 69 71 79 79 77 82 79 75 69 60 50 38 32 26 14
228 197 171 196 209 175 173 159 121 68 46 76 80 63 59 78 90 90 83 93 81 62 87 115 125 128 147 139 133 126 137 185 196 158 133 145 118 97 73 67 66 73 77 80 77 78 78 80 64 44 30 28 31 24
233 151 156 158 165 164 124 124 52 24 89 90 75 78 68 92 104 76 80 96 100 106 118 130 155 161 123 140 156 162 136 147 179 148 102 102 101 97 79 72 68 72 70 69 74 75 78 73 55 34 24 19 27 31
180 120 144 155 144 148 120 86 100 105 74 56 64 82 90 98 70 62 59 92 132 113 117 117 133 152 155 153 137 128 133 136 130 111 95 89 88 89 91 82 64 62 62 55 66 76 75 59 43 29 25 24 27 25
151 85 88 98 127 93 78 106 70 53 48 37 89 78 87 77 63 65 94 111 125 134 157 163 157 147 148 142 146 155 135 118 110 89 75 74 75 73 72 67 59 33 61 60 70 71 72 57 46 30 21 23 26 26
137 154 137 143 117 105 95 74 40 48 53 9 91 81 53 43 43 82 98 105 116 136 167 166 141 142 163 162 145 119 108 108 115 95 75 55 54 49 86 86 73 67 65 64 48 53 58 55 44 31 19 16 20 22
132 145 117 100 97 83 62 62 44 48 52 52 58 59 48 43 48 73 106 120 124 122 124 124 123 146 151 168 149 112 74 67 71 83 74 49 42 57 68 73 74 70 69 67 65 55 47 57 42 37 29 20 21 22
111 96 105 105 80 80 81 72 68 67 61 62 57 68 75 57 54 77 98 103 124 140 134 120 118 117 152 155 152 155 109 57 55 47 51 58 61 68 69 76 80 78 73 70 60 54 47 46 38 29 27 30 28 32
118 86 91 98 108 88 109 98 90 79 70 71 69 69 73 86 77 84 80 115 115 108 88 116 127 102 87 91 96 97 105 95 73 59 61 68 76 80 88 82 80 77 65 55 48 42 37 28 25 21 23 28 28 27
117 113 118 130 119 101 101 108 104 91 93 89 86 87 86 91 81 91 78 53 81 96 96 101 109 111 107 105 106 97 93 88 77 68 60 57 55 67 89 71 70 66 56 44 38 31 24 26 22 15 12 21 25 21

GFSWCAN_con_3kmhel_264.txt.gz
Helicity
58 77 96 143 126 116 190 237 233 239 183 160 170 236 215 210 226 203 237 224 190 221 278 207 180 176 169 143 160 165 150 140 159 153 170 207 266 305 295 302 309 288 345 306 247 217 178 160 102 113 151 80 50 49
104 95 89 86 114 112 232 316 272 270 204 207 224 223 206 227 298 269 257 225 248 255 234 237 260 200 142 137 141 122 146 143 162 209 202 261 341 329 305 310 182 274 200 236 156 186 167 111 106 118 110 37 41 48
81 90 103 93 76 63 180 317 319 275 256 214 203 228 267 282 285 254 264 214 270 289 255 213 235 195 146 115 66 135 119 138 161 157 217 246 277 276 294 260 258 173 124 156 125 127 116 83 114 118 56 19 36 43
70 75 73 77 65 61 189 413 338 314 247 207 206 255 314 294 294 282 254 156 181 187 184 175 150 178 117 83 96 109 137 155 160 141 212 227 252 188 234 223 198 192 136 129 98 81 69 104 107 55 18 39 9 2
85 87 98 67 83 95 261 400 400 401 304 231 273 328 334 364 311 349 271 146 92 130 164 189 182 162 121 92 144 137 150 140 154 193 199 196 181 188 162 136 178 100 126 113 104 103 100 77 65 -1 20 -2 -10 -20
85 78 78 92 87 104 282 428 487 355 260 382 373 349 382 278 319 290 239 114 77 80 132 168 127 151 135 130 159 150 118 126 155 181 186 162 128 133 198 194 114 68 67 87 94 105 83 54 24 36 10 -5 -18 -28
97 84 76 74 86 119 395 482 496 442 463 370 452 384 310 350 292 233 179 123 69 79 109 147 124 112 107 127 131 128 118 143 160 179 164 142 140 134 160 189 104 61 56 64 73 82 65 83 49 -9 -6 -4 -10 -24
106 89 74 70 74 182 447 587 524 441 414 457 414 330 363 351 230 303 216 90 69 102 104 119 123 130 122 148 146 133 168 183 180 175 132 138 145 119 152 83 66 48 49 50 71 105 68 41 17 -3 12 6 -12 -17
106 96 87 73 87 317 590 565 501 556 482 486 370 386 398 323 261 194 96 98 113 98 131 102 112 106 109 151 155 159 175 205 153 145 141 130 156 159 118 90 59 56 61 56 64 60 60 57 10 4 -1 -2 -11 -16
99 90 87 64 199 470 629 570 580 625 508 467 507 416 354 267 144 96 139 127 130 104 99 112 110 120 116 131 140 150 163 181 200 138 112 145 145 94 64 57 57 55 57 68 59 51 64 40 -3 -6 -5 -3 -9 -7
92 78 74 105 280 474 683 713 745 636 682 618 529 412 287 170 179 173 167 154 112 93 88 118 116 112 91 108 140 124 170 167 171 188 159 166 139 100 73 54 52 53 59 64 68 64 64 51 -24 -23 -21 -16 -11 -5
79 61 95 250 517 654 751 808 885 916 711 508 337 318 304 248 188 155 160 140 105 81 81 110 99 93 88 88 114 125 152 129 164 158 174 166 122 98 74 56 53 55 55 49 60 59 52 37 5 -2 -17 -24 -18 -10
70 67 221 440 719 758 857 901 838 829 593 435 327 263 160 166 163 122 109 125 97 45 64 78 83 63 59 72 115 100 114 160 139 160 169 144 130 98 72 61 55 45 42 42 37 42 41 21 2 0 -29 -23 -20 -17
48 182 332 459 814 826 960 944 699 521 499 274 194 202 123 102 104 150 132 128 66 71 104 95 88 40 48 62 76 83 134 115 143 156 163 136 97 86 70 59 55 40 44 36 34 34 33 23 -9 -16 -13 -16 -23 -25
94 425 563 823 929 972 946 780 393 382 350 179 117 115 128 152 160 141 113 99 114 72 88 80 60 41 42 56 57 95 83 78 132 163 153 110 85 69 55 51 46 44 44 40 46 43 37 29 5 -17 -19 -23 -16 -20
491 630 766 920 928 947 805 508 415 338 282 141 123 98 121 196 169 139 92 113 57 56 55 29 37 49 41 53 74 53 112 64 145 125 99 90 66 56 52 51 52 55 56 49 49 51 45 40 25 -6 -16 -21 -19 -13
649 617 686 925 873 767 491 484 339 264 169 128 126 168 123 161 145 90 66 62 16 45 30 26 38 28 75 80 58 98 86 132 127 97 75 62 58 53 57 57 57 64 61 58 59 53 52 43 37 18 -4 -7 -15 -16
437 770 1034 889 870 680 524 373 210 158 130 160 179 183 170 112 99 81 67 42 20 21 31 24 66 64 58 78 74 99 100 112 92 82 78 69 61 54 64 59 62 70 65 61 60 54 57 48 38 32 16 0 -10 -12
604 744 876 746 670 611 301 260 206 111 156 208 242 212 163 121 108 86 84 45 22 22 62 44 53 57 61 77 99 130 129 122 130 110 83 71 63 63 58 59 57 67 69 71 69 62 55 53 46 40 31 20 8 3
919 934 797 565 522 418 259 205 228 140 171 197 220 208 141 92 109 99 78 41 52 40 39 39 37 61 89 92 99 120 124 140 148 139 104 84 76 75 60 64 61 60 61 64 63 54 67 60 56 48 39 29 27 14
983 788 676 569 503 313 189 184 200 163 226 220 211 188 90 124 105 60 44 38 34 25 33 49 61 67 78 88 86 100 123 129 141 137 127 109 91 79 64 59 62 71 67 62 61 57 66 68 59 54 46 37 32 23
819 590 543 393 281 233 165 197 183 214 232 226 202 81 41 66 55 36 40 37 25 36 63 86 68 96 102 84 90 82 93 110 113 102 93 93 99 94 82 72 76 65 65 62 61 53 60 68 63 53 52 41 30 27
629 497 456 354 212 194 150 239 208 259 193 159 159 94 41 54 39 64 30 28 27 38 55 65 101 96 87 102 103 107 115 140 140 125 120 118 109 100 93 79 73 65 57 60 68 59 61 66 65 65 59 48 38 29
495 414 299 210 142 98 167 179 207 204 190 192 117 43 20 47 67 58 35 53 60 77 69 92 114 142 124 113 109 131 155 151 133 126 140 154 127 105 101 76 67 61 59 66 75 66 64 67 68 72 64 44 32 26
209 200 152 122 132 121 147 176 174 161 127 109 65 31 35 72 65 54 48 63 100 93 88 98 102 95 108 125 133 139 147 168 180 151 130 145 124 100 85 78 68 62 73 69 63 60 63 69 71 70 58 37 22 19
127 98 80 86 115 126 92 140 116 83 103 94 67 64 67 72 72 41 54 80 99 90 96 119 130 112 81 104 163 163 146 140 155 156 121 105 98 91 83 82 82 82 76 69 64 59 60 65 68 65 49 26 14 26
119 103 105 143 159 133 132 144 115 104 63 7 30 62 68 56 33 51 52 58 111 103 108 99 101 113 134 148 137 146 148 146 135 126 107 90 78 73 75 73 68 74 79 69 62 58 57 60 61 57 44 25 18 20
115 88 82 101 126 117 106 117 85 39 33 25 72 56 56 53 60 62 61 80 107 148 153 131 130 141 150 145 150 177 169 143 126 102 84 73 60 51 52 58 62 53 86 75 65 62 62 57 55 50 37 27 21 21
100 115 110 131 123 104 100 93 56 58 70 18 83 75 59 61 53 56 63 79 116 126 128 152 153 146 159 166 166 147 141 137 162 147 119 86 64 55 69 74 73 75 75 72 57 56 60 61 59 45 39 32 26 22
104 127 108 118 106 79 66 67 70 76 86 63 69 76 69 41 25 31 60 87 86 66 93 117 124 119 139 154 176 156 111 90 80 108 106 82 65 73 76 76 76 78 78 71 63 60 53 68 66 60 46 31 27 26
127 120 139 132 87 85 95 97 93 87 78 83 72 79 68 31 15 25 51 73 89 112 127 125 119 114 149 159 183 189 144 81 73 72 80 83 78 77 77 77 78 80 70 63 58 54 48 44 34 26 25 25 28 38
120 110 113 119 123 101 128 105 78 71 80 78 79 70 55 52 52 41 59 95 92 77 66 98 118 112 101 132 133 121 108 111 106 90 87 81 79 79 82 75 70 67 59 53 50 43 36 23 14 12 11 15 25 30
114 126 134 145 124 91 77 84 93 88 89 76 75 73 66 66 60 56 71 48 72 76 84 89 106 125 130 139 131 120 118 112 102 95 84 84 81 75 89 70 65 62 61 53 47 42 31 20 15 14 13 14 20 23